This is the latest recevied weather packets stored in our database for station/object LZ1HCO-25. If no packets are shown the sender has not sent any weather packets the latest 10 day(s).
| Time | Temp. | Humidity | Pressure | Rain* | Wind** | Luminosity | Snow |
|---|---|---|---|---|---|---|---|
| 1778143992 | 21.67° C | 54% | 969 hPa | - | - | 0 W/m² | - |
| 1778143680 | 21.67° C | 52% | 969 hPa | - | - | 0 W/m² | - |
| 1778143369 | 22.22° C | 54% | 969 hPa | - | - | 0 W/m² | - |
| 1778143058 | 22.22° C | 52% | 969 hPa | - | - | 0 W/m² | - |
| 1778142746 | 22.78° C | 52% | 969 hPa | - | - | 0 W/m² | - |
| 1778142435 | 21.67° C | 52% | 969 hPa | - | - | 0 W/m² | - |
| 1778142124 | 21.67° C | 54% | 969 hPa | - | - | 0 W/m² | - |
| 1778141812 | 21.67° C | 52% | 969 hPa | - | - | 0 W/m² | - |
| 1778141501 | 21.67° C | 53% | 969 hPa | - | - | 0 W/m² | - |
| 1778141189 | 21.67° C | 52% | 969 hPa | - | - | 0 W/m² | - |
| 1778140878 | 21.67° C | 55% | 969 hPa | - | - | 0 W/m² | - |
| 1778140567 | 21.11° C | 54% | 969 hPa | - | - | 0 W/m² | - |
| 1778140255 | 21.67° C | 54% | 969 hPa | - | - | 0 W/m² | - |
| 1778139944 | 21.67° C | 55% | 969 hPa | - | - | 0 W/m² | - |
| 1778139633 | 21.67° C | 53% | 969 hPa | - | - | 0 W/m² | - |
| 1778139321 | 21.11° C | 55% | 969 hPa | - | - | 0 W/m² | - |
| 1778139010 | 21.11° C | 53% | 969 hPa | - | - | 0 W/m² | - |
| 1778138699 | 20.56° C | 53% | 969 hPa | - | - | 0 W/m² | - |
| 1778138387 | 20.56° C | 55% | 969 hPa | - | - | 0 W/m² | - |
| 1778138076 | 20.56° C | 58% | 969 hPa | - | - | 0 W/m² | - |
| 1778137765 | 20.56° C | 60% | 969 hPa | - | - | 0 W/m² | - |
| 1778137453 | 20° C | 59% | 969 hPa | - | - | 0 W/m² | - |
| 1778137142 | 20° C | 63% | 969 hPa | - | - | 0 W/m² | - |
| 1778136830 | 19.44° C | 66% | 969 hPa | - | - | 0 W/m² | - |
| 1778136519 | 20° C | 67% | 969 hPa | - | - | 0 W/m² | - |
* Rain since midnight (hover to see other rain measurements)
** Current wind speed in m/s (hover to see current wind gust speed)